Preview of NWS' New Version of Forecast
This preview is not operational and should not be used for support decisions.

Regional Weather Roundup (RWR)

Issued by Philadelphia/Mt Holly (PHI)

                            
000
ASUS41 KPHI 231012
RWRPHI

REGIONAL WEATHER ROUNDUP
NATIONAL WEATHER SERVICE MOUNT HOLLY NJ
600 AM EDT SAT MAR 23 2019

NOTE:  "FAIR" INDICATES FEW OR NO CLOUDS BELOW 12,000 FEET WITH NO
SIGNIFICANT WEATHER AND/OR OBSTRUCTIONS TO VISIBILITY.

 * = STATION DOES NOT REPORT PRECIPITATION (E.G. RAIN, SNOW, ETC.) 
        OR FOG.

NJZ015>026-231100-
SOUTHERN NEW JERSEY
  
CITY           SKY/WX    TMP DP  RH WIND       PRES   REMARKS
POMONA         FAIR      35  23  61 W20G36    29.77R WCI  24          
WILDWOOD*      MOCLDY    36  24  62 W21G31    29.85R WCI  25          
MILLVILLE      FAIR      34  22  61 W15G22    29.83R WCI  24          
WRIGHTSTOWN    FAIR      35  21  57 NW16G31   29.74R WCI  25          
MOUNT HOLLY    FAIR      36  20  52 NW17G28   29.79R WCI  26          
TRENTON        FAIR      35  21  56 W15G22    29.76R WCI  25          

$$
NJZ001>014-231100-
NORTHERN NEW JERSEY
  
CITY           SKY/WX    TMP DP  RH WIND       PRES   REMARKS
SUSSEX         CLOUDY    32  21  64 NW13G23   29.70R WCI  22          
ANDOVER*         N/A     31  19  61 NW12G23   29.72R WCI  22          
MORRISTOWN     CLOUDY    34  21  60 W17G26    29.70R WCI  23          
NEWARK         CLOUDY    35  20  54 NW25G36   29.69R WCI  23          
TETERBORO      CLOUDY    35  20  54 W15G37    29.67R WCI  25          
CALDWELL       MOCLDY    33  20  58 NW20G31   29.70R WCI  21          
SOMERVILLE     FAIR      35  21  56 NW14G26   29.72R WCI  26          
ALLAIRE*       CLOUDY    35  20  54 W25G40    29.70R WCI  23          
TOMS RIVER*    FAIR      35  21  56 W23G35    29.74R WCI  23          

$$
PAZ043-044-047-054-055-060>062-066>071-231100-
EASTERN PENNSYLVANIA
  
CITY           SKY/WX    TMP DP  RH WIND       PRES   REMARKS
PHILADELPHIA   MOCLDY    36  20  52 W17G26    29.83R WCI  26          
NORTH PHILA    FAIR      37  20  50 W16G35    29.80R WCI  28          
BLUE BELL*     FAIR      32  21  64 W15G22    29.81R WCI  22          
DOYLESTOWN     FAIR      33  20  58 NW12G29   29.77R WCI  24          
QUAKERTOWN*    CLEAR     32  19  59 W12G23    29.79  WCI  23          
PERKASIE*      CLOUDY    32  19  59 W17G26    29.79R WCI  21          
POTTSTOWN      FAIR      32  20  61 W12G23    29.82R WCI  23          
LANCASTER      FAIR      34  22  61 W20G31    29.86R WCI  23          
COATESVILLE    FAIR      32  23  69 NW26G38   29.83R WCI  18          
READING        CLOUDY    34  23  64 W14       29.84R WCI  25          
ALLENTOWN      CLOUDY    35  20  54 W14G23    29.79R WCI  26          
MOUNT POCONO   CLOUDY    24  20  84 W26G38    29.66R WCI   8          
HAZLETON       CLOUDY    28  19  69 W13G28    29.78R WCI  18          
LEHIGHTON      PTSUNNY   32  21  64 W8G22     29.81R WCI  25          
WILKES BARRE   CLOUDY    30  21  69 NW17G26   29.78R WCI  18          

$$
DEZALL-MDZ008-012-015-019-020-231100-
DELAWARE AND EASTERN MARYLAND
  
CITY           SKY/WX    TMP DP  RH WIND       PRES   REMARKS
WILMINGTON     FAIR      35  21  56 W25G35    29.85R WCI  23          
DOVER          FAIR      35  22  58 W17G31    29.86R WCI  25          
GEORGETOWN     FAIR      38  23  55 NW10G20   29.89R WCI  31          
EASTON         CLEAR     37  23  56 W15G29    29.95R WCI  28          
PATUXENT       FAIR      38  25  59 NW17G33   29.93  WCI  28          
OCEAN CITY     FAIR      37  24  59 NW15G25   29.88R WCI  28          
WALLOPS ISLAND FAIR      40  24  53 NW17G29   29.90R WCI  31          
CAMBRIDGE      CLEAR     37  23  56 NW15G26   29.93R WCI  28          
SALISBURY      FAIR      37  25  61 NW15G25   29.90R WCI  28          

$$
PAZ001-021-NYZ056-072-MDZ011-DCZ001-231100-
OTHER NEARBY LOCATIONS
  
CITY           SKY/WX    TMP DP  RH WIND       PRES   REMARKS
HARRISBURG     MOCLDY    34  22  61 NW21G28   29.89R WCI  22          
STATE COLLEGE  CLOUDY    28  19  69 NW15G26   29.93R WCI  17          
WILLIAMSPORT   CLOUDY    32  19  58 W13       29.88R WCI  22          
BINGHAMTON     CLOUDY    22  16  78 NW16G32   29.75R WCI   8          
NEW YORK CITY  CLOUDY    35  19  52 W13G28    29.69R WCI  26          
BALTIMORE      FAIR      34  22  61 NW18G29   29.92R WCI  23          
WASHINGTON DC  FAIR      38  22  52 NW15G23   29.97R WCI  29          

$$